Location: Riverton
(43.0250°N, 108.3790°W)
Time: 02:37:46
(UTC-06:00)

Amateur Radio Satellites - All Passes

Search period start: 23 October 2014 02:07
Search period end: 24 October 2014 02:07
Location: Riverton, 43.0250°N, 108.3790°W

Satellite Date Start Highest point End Downlink Frequencies (MHz)
Time Altitude Azimuth
AO-27 23 Oct 02:13:25 02:16:04 14° 89° (E) 02:18:43 436.795 MHz FM
Oscar 16 23 Oct 02:44:28 02:49:35 67° 102° (ESE) 02:54:40 437.025 USB, Beacon 2401.1428
AO-Echo 23 Oct 02:55:57 03:01:04 46° 99° (E) 03:06:10 ?
JAS-1B 23 Oct 02:56:49 03:03:20 69° 103° (ESE) 03:11:07 435.800 - 435.900 CW/SSB
Uribyol 2 23 Oct 03:00:29 03:05:24 40° 98° (E) 03:10:15 436.500 FM
ITAMSAT 1 23 Oct 03:05:57 03:10:55 42° 99° (E) 03:15:51 435.822 SSB
Gurwin Techsat 1B 23 Oct 03:14:09 03:18:40 28° 95° (E) 03:23:09 435.225 FM
TMSAT-1 23 Oct 03:26:45 03:31:13 27° 94° (E) 03:35:38 436.925 FM
RS-15 23 Oct 03:29:47 03:38:05 24° 354° (N) 03:46:32 29.354 - 29.394 USB, Beacon 29.352 USB
Oscar 19 23 Oct 03:38:34 03:43:21 41° 291° (WNW) 03:48:06 437.125 CW, 437.150 USB
OPAL 23 Oct 03:45:26 03:47:08 12° 54° (NE) 03:48:50 ?
AO-27 23 Oct 03:50:54 03:56:09 75° 286° (WNW) 04:01:21 436.795 MHz FM
Sapphire 23 Oct 04:24:20 04:29:19 39° 112° (ESE) 04:34:20 437.095 MHz 1200 baud AX-25 AFSK
Oscar 16 23 Oct 04:25:10 04:28:23 17° 300° (WNW) 04:31:36 437.025 USB, Beacon 2401.1428
AO-Echo 23 Oct 04:35:17 04:39:32 25° 296° (WNW) 04:43:47 ?
Uosat F 23 Oct 04:40:10 04:43:40 19° 92° (E) 04:47:08 435.120 FM
Uribyol 2 23 Oct 04:40:20 04:44:41 27° 295° (WNW) 04:49:00 436.500 FM
ITAMSAT 1 23 Oct 04:45:54 04:50:11 26° 296° (WNW) 04:54:26 435.822 SSB
PCSat 23 Oct 04:46:39 04:52:00 66° 116° (ESE) 04:57:23 145.825 MHz
JAS-1B 23 Oct 04:48:42 04:53:37 24° 298° (WNW) 04:59:07 435.800 - 435.900 CW/SSB
Gurwin Techsat 1B 23 Oct 04:53:47 04:58:43 40° 292° (WNW) 05:03:37 435.225 FM
JAS-2 23 Oct 05:03:33 05:07:34 15° 85° (E) 05:11:35 435.800 - 435.900 CW/SSB, 435.910 FM
TMSAT-1 23 Oct 05:06:17 05:11:15 41° 291° (WNW) 05:16:10 436.925 FM
AO-7 23 Oct 05:19:49 05:27:59 56° 103° (ESE) 05:36:07 29.400 - 29.500 MHz
OPAL 23 Oct 05:20:02 05:25:11 78° 72° (ENE) 05:30:19 ?
STRAND 1 23 Oct 05:27:41 05:28:20 10° 55° (NE) 05:28:59 ?
AO-27 23 Oct 05:33:22 05:34:45 11° 304° (NW) 05:36:08 436.795 MHz FM
RS-15 23 Oct 05:45:29 05:55:09 33° 29° (NNE) 06:05:03 29.354 - 29.394 USB, Beacon 29.352 USB
Sapphire 23 Oct 06:07:54 06:12:48 34° 311° (NW) 06:17:43 437.095 MHz 1200 baud AX-25 AFSK
Uosat F 23 Oct 06:17:50 06:22:46 54° 289° (WNW) 06:27:41 435.120 FM
PCSat 23 Oct 06:31:39 06:35:54 23° 316° (NW) 06:40:10 145.825 MHz
JAS-2 23 Oct 06:45:54 06:53:40 74° 102° (ESE) 07:01:30 435.800 - 435.900 CW/SSB, 435.910 FM
STRAND 1 23 Oct 07:01:29 07:06:35 72° 73° (ENE) 07:11:44 ?
OPAL 23 Oct 07:02:12 07:04:36 13° 268° (W) 07:07:01 ?
Hamsat 23 Oct 07:06:04 07:10:16 80° 102° (ESE) 07:14:29 145.90 MHz
AO-7 23 Oct 07:13:05 07:20:26 37° 302° (WNW) 07:27:47 29.400 - 29.500 MHz
RS-15 23 Oct 07:58:06 08:09:19 84° 56° (NE) 08:21:01 29.354 - 29.394 USB, Beacon 29.352 USB
SO-67 23 Oct 08:01:54 08:05:12 42° 99° (E) 08:08:29 435.3500 MHz FM
Saudisat 1A 23 Oct 08:04:35 08:08:30 33° 116° (ESE) 08:12:28 436.775 MHz
JAS-2 23 Oct 08:31:53 08:37:59 27° 300° (WNW) 08:44:14 435.800 - 435.900 CW/SSB, 435.910 FM
STRAND 1 23 Oct 08:43:37 08:46:18 14° 270° (W) 08:49:01 ?
Hamsat 23 Oct 08:45:01 08:45:35 10° 299° (WNW) 08:46:09 145.90 MHz
SO-67 23 Oct 09:36:24 09:37:48 12° 295° (WNW) 09:39:13 435.3500 MHz FM
Saudisat 1A 23 Oct 09:44:10 09:48:04 30° 314° (NW) 09:52:00 436.775 MHz
MaSat-1 23 Oct 09:50:37 09:53:14 45° 60° (ENE) 09:55:37 437.345 MHz
HO-68 23 Oct 09:51:56 09:58:52 48° 100° (E) 10:05:44 435.675 MHz FM
UKube-1 23 Oct 10:08:16 10:11:40 22° 94° (E) 10:15:02 145.840 MHz, 145.915 MHz
RS-15 23 Oct 10:11:44 10:20:26 27° 257° (WSW) 10:29:28 29.354 - 29.394 USB, Beacon 29.352 USB
FUNcube-1 23 Oct 10:44:58 10:48:13 21° 93° (E) 10:51:25 145.950 - 145.970 MHz USB
Oscar 11 23 Oct 10:50:41 10:54:57 59° 101° (E) 10:59:11 145.825 FM, Beacon 2401.500 USB
ZACube-1 23 Oct 11:35:19 11:39:37 77° 102° (ESE) 11:43:48 437.345 MHz
HO-68 23 Oct 11:39:58 11:46:22 36° 298° (WNW) 11:52:46 435.675 MHz FM
UKube-1 23 Oct 11:43:56 11:47:56 36° 291° (WNW) 11:51:55 145.840 MHz, 145.915 MHz
PCSat 23 Oct 11:51:48 11:54:35 14° 35° (NE) 11:57:21 145.825 MHz
Oscar 10/S400 23 Oct 12:04:33 12:19:53 19° 150° (SSE) 12:31:59 145.825 - 145.975 CW/USB, Beacon 145.810 USB
KITSAT 1 23 Oct 12:17:10 12:24:24 38° 109° (ESE) 12:31:38 435.175 FM
FUNcube-1 23 Oct 12:20:49 12:24:42 34° 290° (WNW) 12:28:30 145.950 - 145.970 MHz USB
Oscar 16 23 Oct 12:25:58 12:28:48 15° 59° (ENE) 12:31:39 437.025 USB, Beacon 2401.1428
Oscar 11 23 Oct 12:28:22 12:30:39 14° 298° (WNW) 12:32:56 145.825 FM, Beacon 2401.500 USB
ITAMSAT 1 23 Oct 12:50:40 12:51:25 10° 55° (NE) 12:52:10 435.822 SSB
Sapphire 23 Oct 13:11:04 13:16:12 40° 52° (NE) 13:21:18 437.095 MHz 1200 baud AX-25 AFSK
ZACube-1 23 Oct 13:14:14 13:15:21 11° 300° (WNW) 13:16:28 437.345 MHz
Oscar 19 23 Oct 13:17:17 13:22:05 40° 69° (ENE) 13:26:52 437.125 CW, 437.150 USB
SO-50 23 Oct 13:19:34 13:23:35 33° 115° (ESE) 13:27:42 436.795 FM
AO-27 23 Oct 13:31:54 13:36:04 25° 64° (ENE) 13:40:15 436.795 MHz FM
ISS 23 Oct 13:32:07 13:35:09 33° 138° (SE) 13:38:12 145.800 FM
PCSat 23 Oct 13:33:41 13:39:06 64° 57° (ENE) 13:44:28 145.825 MHz
JAS-1B 23 Oct 13:44:35 13:50:28 60° 71° (ENE) 13:56:02 435.800 - 435.900 CW/SSB
Oscar 16 23 Oct 14:02:20 14:07:31 78° 257° (WSW) 14:12:42 437.025 USB, Beacon 2401.1428
AO-Echo 23 Oct 14:09:49 14:14:37 63° 73° (ENE) 14:19:37 ?
KITSAT 1 23 Oct 14:11:39 14:19:32 55° 309° (NW) 14:27:27 435.175 FM
Uribyol 2 23 Oct 14:19:08 14:24:18 67° 73° (ENE) 14:29:31 436.500 FM
ITAMSAT 1 23 Oct 14:24:46 14:29:57 71° 73° (ENE) 14:35:10 435.822 SSB
AO-7 23 Oct 14:30:47 14:36:16 20° 48° (NE) 14:41:46 29.400 - 29.500 MHz
Gurwin Techsat 1B 23 Oct 14:36:00 14:41:03 47° 70° (ENE) 14:46:09 435.225 FM
TMSAT-1 23 Oct 14:48:15 14:53:17 45° 70° (ENE) 14:58:20 436.925 FM
UOSAT-12 23 Oct 14:51:37 14:55:30 27° 113° (ESE) 14:59:26 437.025 FM, 437.400 FM
Sapphire 23 Oct 14:54:45 14:59:30 32° 250° (WSW) 15:04:14 437.095 MHz 1200 baud AX-25 AFSK
Oscar 19 23 Oct 14:57:17 15:01:32 26° 266° (W) 15:05:48 437.125 CW, 437.150 USB
SO-50 23 Oct 15:00:02 15:04:07 32° 314° (NW) 15:08:19 436.795 FM
ISS 23 Oct 15:08:40 15:11:49 38° 336° (NNW) 15:14:59 145.800 FM
AO-27 23 Oct 15:10:20 15:15:18 45° 261° (W) 15:20:19 436.795 MHz FM
PCSat 23 Oct 15:18:16 15:21:59 19° 255° (WSW) 15:25:40 145.825 MHz
JAS-1B 23 Oct 15:37:38 15:41:37 18° 268° (W) 15:45:27 435.800 - 435.900 CW/SSB
AO-Echo 23 Oct 15:51:03 15:53:53 15° 271° (W) 15:56:47 ?
Uosat F 23 Oct 15:54:06 15:58:24 29° 66° (ENE) 16:02:42 435.120 FM
Uribyol 2 23 Oct 16:01:09 16:04:15 16° 270° (W) 16:07:23 436.500 FM
ITAMSAT 1 23 Oct 16:07:04 16:09:58 15° 270° (W) 16:12:52 435.822 SSB
KITSAT 1 23 Oct 16:11:32 16:16:59 19° 335° (NNW) 16:22:26 435.175 FM
Gurwin Techsat 1B 23 Oct 16:17:06 16:21:15 23° 267° (W) 16:25:26 435.225 FM
AO-7 23 Oct 16:19:33 16:27:49 79° 69° (ENE) 16:36:07 29.400 - 29.500 MHz
TMSAT-1 23 Oct 16:29:10 16:33:23 24° 267° (W) 16:37:39 436.925 FM
Saudisat 1A 23 Oct 16:30:00 16:34:08 37° 48° (NE) 16:38:15 436.775 MHz
UOSAT-12 23 Oct 16:31:04 16:35:28 40° 312° (NW) 16:39:57 437.025 FM, 437.400 FM
ISS 23 Oct 16:46:43 16:49:11 19° 356° (N) 16:51:38 145.800 FM
JAS-2 23 Oct 16:59:47 17:05:05 34° 63° (ENE) 17:11:00 435.800 - 435.900 CW/SSB, 435.910 FM
OPAL 23 Oct 17:30:16 17:33:34 18° 94° (E) 17:36:50 ?
Uosat F 23 Oct 17:32:29 17:37:03 35° 263° (W) 17:41:41 435.120 FM
Hamsat 23 Oct 18:00:00 18:04:10 63° 75° (ENE) 18:08:19 145.90 MHz
Saudisat 1A 23 Oct 18:09:51 18:13:33 26° 246° (WSW) 18:17:14 436.775 MHz
KITSAT 1 23 Oct 18:12:41 18:16:20 13° 6° (N) 18:19:59 435.175 FM
AO-7 23 Oct 18:15:15 18:21:24 23° 268° (W) 18:27:37 29.400 - 29.500 MHz
ISS 23 Oct 18:23:51 18:26:41 25° 16° (NNE) 18:29:31 145.800 FM
SO-67 23 Oct 18:36:14 18:38:31 17° 68° (ENE) 18:40:50 435.3500 MHz FM
JAS-2 23 Oct 18:44:29 18:49:59 41° 265° (W) 18:56:13 435.800 - 435.900 CW/SSB, 435.910 FM
OPAL 23 Oct 19:07:56 19:12:49 56° 291° (WNW) 19:17:38 ?
STRAND 1 23 Oct 19:11:56 19:15:57 23° 93° (E) 19:19:56 ?
Hamsat 23 Oct 19:39:07 19:40:31 11° 271° (W) 19:41:56 145.90 MHz
ISS 23 Oct 20:00:20 20:03:41 80° 215° (SW) 20:07:01 145.800 FM
SO-67 23 Oct 20:08:18 20:11:18 28° 264° (W) 20:14:19 435.3500 MHz FM
KITSAT 1 23 Oct 20:08:32 20:15:10 27° 35° (NE) 20:21:45 435.175 FM
SO-50 23 Oct 20:11:45 20:12:31 10° 28° (NNE) 20:13:17 436.795 FM
HO-68 23 Oct 20:21:32 20:28:04 40° 63° (ENE) 20:34:38 435.675 MHz FM
STRAND 1 23 Oct 20:50:25 20:55:21 46° 290° (WNW) 21:00:14 ?
UKube-1 23 Oct 21:04:47 21:08:10 23° 65° (ENE) 21:11:34 145.840 MHz, 145.915 MHz
ISS 23 Oct 21:39:28 21:39:50 10° 231° (SW) 21:40:13 145.800 FM
FUNcube-1 23 Oct 21:42:08 21:45:38 22° 66° (ENE) 21:49:06 145.950 - 145.970 MHz USB
Oscar 11 23 Oct 21:46:25 21:50:37 51° 73° (ENE) 21:54:49 145.825 FM, Beacon 2401.500 USB
SO-50 23 Oct 21:49:43 21:54:20 43° 49° (NE) 21:58:58 436.795 FM
KITSAT 1 23 Oct 22:03:35 22:11:43 87° 59° (ENE) 22:19:48 435.175 FM
HO-68 23 Oct 22:09:00 22:15:42 43° 261° (W) 22:22:29 435.675 MHz FM
RS-15 23 Oct 22:22:51 22:33:12 49° 111° (ESE) 22:43:28 29.354 - 29.394 USB, Beacon 29.352 USB
ZACube-1 23 Oct 22:32:03 22:36:38 70° 75° (ENE) 22:41:09 437.345 MHz
UKube-1 23 Oct 22:40:09 22:44:09 36° 262° (W) 22:48:11 145.840 MHz, 145.915 MHz
FUNcube-1 23 Oct 23:17:26 23:21:45 40° 262° (W) 23:26:03 145.950 - 145.970 MHz USB
UOSAT-12 23 Oct 23:19:44 23:24:02 33° 46° (NE) 23:28:16 437.025 FM, 437.400 FM
Oscar 11 23 Oct 23:24:38 23:27:06 15° 269° (W) 23:29:34 145.825 FM, Beacon 2401.500 USB
MaSat-1 23 Oct 23:29:28 23:31:50 15° 106° (ESE) 23:34:05 437.345 MHz
SO-50 23 Oct 23:30:39 23:34:43 27° 247° (WSW) 23:38:47 436.795 FM
KITSAT 1 24 Oct 00:00:36 00:06:04 20° 258° (WSW) 00:11:32 435.175 FM
ZACube-1 24 Oct 00:11:37 00:13:28 12° 271° (W) 00:15:18 437.345 MHz
RS-15 24 Oct 00:34:49 00:45:28 54° 315° (NW) 00:56:11 29.354 - 29.394 USB, Beacon 29.352 USB
UOSAT-12 24 Oct 00:59:56 01:04:11 34° 245° (WSW) 01:08:21 437.025 FM, 437.400 FM
MaSat-1 24 Oct 01:03:13 01:07:14 49° 299° (WNW) 01:10:52 437.345 MHz
JAS-1B 24 Oct 01:27:13 01:31:15 16° 91° (E) 01:35:36 435.800 - 435.900 CW/SSB
Oscar 19 24 Oct 01:29:45 01:31:57 13° 89° (E) 01:34:07 437.125 CW, 437.150 USB
